CZ-6A DEB, 54954

Orbit data source: Space-Track

CZ-6A DEB, 54954 is space debris in SSO originally from a launch on Fri, 11 Nov 2022 UTC launched from the Taiyaun Space Center, China (TSC). Debris objects in space refer to the collection of defunct objects orbiting the Earth. Examples of debris include non-operational satellites, rocket bodies, and fragments generated from explosions, collisions, or faulty payload assembly.

Loading next visibility...
Identifier
54954, 2022-151ST
Orbit
SSO
Country
Flag of CNCN / PRC
Related business
Manufacturer
SAST
Mission
Spacecraft
Bus & Motor
Unknown
Mass
Unknown
Launch date (UTC)
2022-11-11 (3 years ago)
Launch vehicle
Unknown
Launch site
Taiyaun Space Center, China (TSC)
Object type
Payload
Rocket body
Debris
Shape & HBR
Unknown shape, 0.1 m
Radar Cross Section
Small (<0.1 m²)

Expand to show TLE details & history
Last TLE update: 12 hours ago

TLE from 12 hours ago
0 CZ-6A DEB
1 54954U 22151ST  25351.59798543  .00005821  00000-0  12264-2 0  9997
2 54954  98.6336  36.9529 0095985 146.5170 214.2145 14.56994718163124
Epoch: 2025-12-17T14:21Z
TLE epoch observation values (Epoch: 2025-12-17T14:21:05.941Z)
Latitude
-0.00004°
Longitude
95.2126°
Altitude
762.283 km
Speed
7.443 km/s
True Right ascension
02h 27m 48s
True Declination
0° 00' 00"
Sunlit
Object was in full shadow at epoch
Visualization orbit readout
Latitude
Unknown
Longitude
Unknown
Altitude
Unknown
Speed
Unknown
Apparent Right ascension
Unknown
Apparent Declination
Unknown
Sunlit
N/A
Visualization observer readout
Local Sidereal Time
00:47:42
Azimuth
Unknown
Elevation
Unknown
Doppler factor
Unknown
Orbital elements
Apogee altitude
767.939 km
Perigee altitude
632.06 km
Semi-major axis
7,078.137 km
Eccentricity
0.0096
Inclination
98.6336°
RAAN
36.9529°
Arg. of periapsis
146.517°
True anomaly
213.60212°
Mean anomaly
214.2145°
Eccentric anomaly
213.9077°
Mean motion
3.64472 °/min
Orbital period
98.77 mins
BSTAR
0.0012264
Loading maneuver chart data...
Computing Atmospheric mass density...
Loading historical data...
Loading historical data...
Loading historical data...
Loading historical data...
Loading historical data...
Loading historical data...
Loading historical data...

Documentation

Showing up to 5 results
|